GFSGL_500_rhum_093.txt.gz
RH
67 35 34 21 24 22 18 17 15 48 92 97 95 96 97 96 97 96 98 95 96 91 96 97 97 95 94 98 99 99 98 95 84 81 80 89 87 90 89 80 78 78 80
70 34 30 22 24 21 15 15 29 66 90 97 96 96 97 97 97 97 96 96 96 97 97 98 97 99 100 99 94 71 52 45 50 70 83 78 70 63 50 47 60 39 39
68 47 31 22 24 26 18 16 32 66 83 60 97 97 97 96 97 97 97 98 97 97 97 97 96 83 65 48 42 38 33 28 25 26 42 44 42 44 41 38 35 31 31
62 56 38 25 23 28 26 18 16 29 58 57 59 74 90 97 92 94 95 96 97 89 91 92 75 57 40 33 32 35 41 46 40 31 27 25 26 27 26 24 22 21 44
58 53 42 34 24 25 31 28 20 17 23 25 28 27 26 33 26 29 56 94 98 74 44 31 30 34 36 40 43 38 28 18 17 22 28 44 51 50 61 65 55 55 62
61 46 45 36 28 24 28 34 28 18 16 19 24 25 28 30 30 31 31 30 29 30 31 32 28 21 19 19 20 23 28 46 68 81 79 78 80 84 87 83 80 80 76
93 81 58 46 39 28 27 32 37 38 31 22 19 21 22 22 22 22 19 17 16 18 21 28 38 48 75 90 92 91 90 92 92 86 79 81 78 77 76 92 97 90 77
100 99 76 53 43 39 29 31 36 44 46 48 46 39 34 32 32 34 38 46 53 63 76 85 84 85 84 84 80 79 77 76 77 77 90 98 80 99 100 89 100 92 98
96 100 91 84 54 38 36 33 40 47 62 65 69 77 78 75 69 66 74 76 73 72 73 75 76 76 80 80 79 83 81 100 87 99 82 87 85 99 98 99 98 98 93
86 98 91 83 79 48 40 39 41 66 89 88 86 82 88 90 88 85 84 84 90 93 93 86 84 80 81 94 89 86 83 76 73 83 85 79 65 56 51 41 35 31 28
95 97 98 98 97 97 79 64 45 81 93 92 89 89 89 91 93 89 98 100 99 100 92 100 96 98 83 86 96 98 76 62 50 44 41 40 39 37 32 29 25 24 22
80 80 94 100 90 97 98 98 98 94 91 93 83 83 88 96 98 81 69 67 82 100 96 84 94 96 91 80 71 66 53 46 45 46 43 41 40 36 33 29 26 22 18
94 93 76 76 91 97 99 95 98 98 91 96 86 91 95 94 81 75 68 61 61 65 72 75 73 68 65 60 58 58 57 56 53 51 51 49 44 35 28 22 19 18 17
99 99 81 89 100 98 97 97 94 96 98 99 97 92 98 100 98 84 77 72 63 65 63 63 62 60 57 56 56 62 67 65 63 59 51 45 35 27 23 22 19 17 17
98 100 99 98 98 99 97 97 97 96 96 96 96 97 100 100 100 98 94 87 76 73 75 71 71 71 71 75 76 71 68 62 56 51 45 39 30 24 21 18 19 19 17
98 97 100 100 100 100 98 98 98 99 97 98 98 97 99 100 98 100 100 100 99 94 96 93 90 84 76 73 67 61 59 54 51 46 35 24 20 19 20 21 18 15 12
98 96 98 99 99 98 98 99 98 99 98 99 98 98 100 100 99 100 100 100 100 100 97 92 83 74 67 66 64 60 50 33 24 21 20 21 22 21 20 16 14 14 21
100 100 99 100 100 99 97 98 98 99 98 98 99 98 100 99 99 99 99 98 98 96 87 75 66 57 41 32 25 21 21 22 23 23 24 23 21 18 17 16 22 33 38
100 100 100 100 100 100 99 100 99 99 100 100 100 98 100 100 100 99 88 68 39 29 26 24 24 23 23 23 25 26 27 26 25 22 19 18 17 20 24 30 35 32 26
64 66 69 70 73 80 84 86 87 85 84 84 81 77 67 53 42 34 32 29 28 28 28 28 28 27 26 25 25 22 20 17 16 16 18 24 29 34 34 31 28 25 23
29 29 32 32 30 30 32 33 34 34 33 32 31 31 32 32 32 31 30 28 26 25 23 22 21 19 17 16 16 17 20 26 32 35 35 32 30 27 24 21 20 18 16
30 30 29 27 27 26 25 25 24 24 23 22 21 21 20 19 19 18 17 17 16 16 16 17 19 21 26 28 29 30 29 27 26 24 23 22 21 20 17 13 10 9 9
27 26 25 24 24 23 24 24 24 23 23 23 24 26 27 27 26 26 26 26 26 26 26 25 25 24 23 23 22 21 20 19 18 17 15 12 10 10 10 9 10 10 12
29 29 29 30 30 30 30 30 29 29 29 29 29 28 27 26 25 24 24 22 22 21 20 19 18 18 16 15 14 12 11 11 10 10 10 10 10 10 12 13 16 17 18
24 24 24 24 24 24 23 22 23 23 24 24 24 24 24 24 23 22 20 19 17 15 13 11 10 10 9 9 9 9 9 9 9 10 12 13 15 18 19 18 20 26 24
25 24 24 24 23 22 22 21 20 19 18 18 18 16 14 12 11 10 9 8 8 7 7 7 7 8 8 8 10 10 12 13 14 16 20 23 22 19 21 27 28 25 22

GFSGL_500_rhum_096.txt.gz
RH
75 95 74 39 29 27 29 24 20 17 14 26 40 90 97 98 95 97 97 96 97 97 96 97 91 88 97 97 96 96 96 99 93 86 89 85 83 95 97 95 90 89 91
88 97 86 42 41 29 28 22 17 15 17 54 79 96 96 98 96 96 96 97 98 97 97 96 96 97 98 97 95 96 99 96 91 88 70 53 58 53 61 73 68 49 44
88 98 89 40 40 28 26 23 20 23 53 58 91 96 96 97 98 97 97 97 98 96 96 96 97 97 98 100 97 97 92 85 58 36 30 27 39 49 48 42 40 37 34
93 98 85 48 51 29 27 25 26 19 49 75 89 97 96 96 96 97 97 97 96 96 97 97 96 97 97 95 80 52 38 33 26 21 42 50 41 29 23 22 22 20 21
98 97 74 62 58 38 27 24 32 24 20 56 80 87 96 97 97 97 97 98 98 97 97 95 95 93 89 66 51 32 24 24 29 38 37 22 21 29 39 57 67 81 81
98 98 70 63 68 49 30 24 27 30 22 22 30 42 69 82 82 70 91 96 97 98 97 99 98 70 34 27 27 27 37 37 27 19 19 31 63 86 88 91 84 81 84
98 96 83 79 96 72 44 29 27 31 35 23 22 27 26 25 25 24 25 49 75 86 74 36 31 34 35 31 24 20 20 23 30 51 72 77 77 81 85 84 95 77 87
98 86 88 100 100 81 60 43 29 28 34 36 28 21 21 21 22 23 24 26 27 27 26 25 24 24 25 32 42 71 83 83 82 79 76 74 78 78 96 100 100 96 98
99 94 92 100 100 100 83 55 43 34 30 37 45 46 38 29 25 24 24 26 28 33 39 45 56 72 84 86 83 79 77 80 85 88 87 82 88 100 95 90 96 90 94
96 100 96 96 97 100 87 80 51 41 37 33 42 54 57 61 60 56 50 47 53 62 72 82 85 85 83 77 76 77 78 81 73 90 95 98 80 93 72 70 58 46 42
89 93 92 92 80 93 89 86 90 60 45 40 38 46 72 83 85 86 86 85 81 80 82 81 80 100 89 99 98 97 97 99 95 98 90 98 89 66 52 46 48 46 41
96 84 99 95 97 98 99 98 98 98 94 64 50 43 72 92 94 90 88 84 81 85 96 98 84 89 99 100 90 85 87 92 83 80 75 70 63 55 48 48 51 49 49
95 98 98 98 98 98 99 92 96 98 86 94 98 98 92 100 97 97 88 98 98 100 97 82 73 74 80 98 100 100 89 80 73 69 64 60 56 60 63 63 61 59 56
99 98 98 99 100 96 100 100 97 99 88 98 98 99 97 92 99 92 89 96 92 94 98 94 79 74 77 85 91 87 81 79 79 78 77 77 74 72 72 68 65 57 50
99 99 99 99 98 98 99 93 98 96 100 99 92 98 98 91 97 98 100 95 96 100 100 94 90 88 88 84 85 90 93 96 98 96 88 83 78 74 66 55 54 52 42
97 96 99 100 99 100 99 98 99 100 100 100 97 94 97 97 97 97 99 98 99 99 99 100 99 99 100 99 98 100 100 99 95 90 85 72 66 64 59 49 36 25 19
100 100 100 100 99 98 98 98 97 99 99 99 99 100 99 99 100 99 99 99 99 99 99 98 98 95 98 99 100 100 99 96 85 80 75 63 48 31 22 20 19 19 19
100 100 100 99 99 99 99 98 99 100 98 99 98 99 98 98 98 99 99 99 98 98 99 99 99 99 99 98 100 98 93 59 43 32 25 23 21 21 20 18 18 19 18
93 98 98 97 99 99 100 100 99 100 100 100 99 100 100 100 99 100 100 100 100 100 99 99 99 98 98 96 92 65 34 26 23 20 18 18 18 17 18 18 16 16 18
44 51 69 80 85 88 75 71 84 90 91 91 94 95 92 94 95 98 97 95 93 91 90 88 84 74 61 47 38 30 23 18 16 17 18 18 16 15 17 19 23 25 24
29 29 30 28 26 28 31 35 31 30 34 35 32 32 32 32 32 31 28 25 23 20 20 19 18 18 18 17 17 17 16 17 17 18 19 21 22 23 23 21 20 18 18
23 22 22 22 22 22 23 23 22 22 23 23 22 22 21 22 22 22 21 20 19 18 18 18 18 18 19 20 20 21 22 23 23 22 22 20 19 18 16 16 15 14 12
26 26 27 27 26 26 26 26 26 26 25 25 25 25 25 25 25 25 25 24 24 24 24 25 26 26 25 24 23 22 20 18 17 17 16 16 14 13 11 9 8 8 8
24 24 23 23 22 21 20 20 19 19 19 20 20 20 20 21 21 21 21 21 21 20 20 19 18 17 18 17 17 17 16 15 14 12 9 8 7 7 8 8 10 11 12
21 21 22 22 21 20 20 20 20 20 20 20 21 21 20 20 20 19 19 18 17 16 15 13 11 10 9 9 9 8 8 7 6 7 7 8 9 10 12 13 17 21 22
12 12 12 11 11 11 11 11 10 10 10 10 10 10 10 9 9 9 8 8 8 8 8 7 7 7 7 7 7 8 9 9 10 11 11 13 16 19 23 25 24 22 22

GFSGL_500_rhum_099.txt.gz
RH
45 27 41 50 79 98 76 24 26 29 25 21 17 12 15 37 84 98 99 99 97 83 92 97 97 96 97 95 97 93 96 100 96 96 97 97 96 95 89 90 93 97 99
36 50 61 81 98 68 44 31 32 28 22 16 11 22 51 69 96 97 96 96 98 97 97 97 96 98 96 95 96 95 97 100 98 96 90 94 95 89 72 69 85 96 99
52 77 91 95 89 44 57 38 30 26 24 17 19 59 87 89 94 97 96 96 98 97 97 97 97 97 97 97 96 97 97 98 98 99 98 90 81 61 60 52 48 52 56
59 80 94 93 100 64 48 42 29 29 28 17 26 56 97 100 98 98 96 98 97 97 97 97 98 97 96 96 98 98 98 98 100 97 94 53 36 25 24 41 43 37 29
65 70 90 90 99 56 56 48 29 30 30 19 20 62 97 97 98 97 96 97 97 97 97 97 97 96 97 97 96 96 100 100 75 52 39 32 32 37 37 31 23 25 34
74 84 96 98 99 57 65 57 41 32 34 30 23 39 87 97 97 97 98 98 97 96 97 96 96 97 97 97 99 99 85 73 52 39 35 36 39 34 22 24 40 80 91
89 77 96 98 98 58 93 87 63 37 35 32 27 27 33 71 95 96 97 96 96 97 98 97 97 96 97 98 97 90 74 41 33 35 37 31 25 27 58 92 96 96 94
77 89 92 100 98 64 81 86 70 55 37 33 39 27 23 27 32 56 50 76 91 96 97 98 97 97 97 83 42 35 35 34 28 22 26 52 80 97 92 90 88 94 94
78 92 93 98 99 66 75 94 62 62 53 33 34 43 41 23 24 30 29 27 36 92 71 87 83 57 41 37 30 25 23 26 39 71 87 83 84 87 87 96 100 98 95
76 78 74 96 97 76 72 100 100 81 62 53 43 35 38 47 48 30 24 24 23 23 22 22 22 21 23 24 30 50 74 80 79 81 83 83 85 81 100 100 97 98 88
76 84 99 84 93 75 73 100 93 100 88 75 61 52 44 40 47 57 61 55 39 32 34 35 36 41 47 58 76 85 83 83 89 96 98 98 97 100 100 100 92 100 96
100 92 94 95 98 87 78 99 94 100 100 99 98 93 64 54 44 45 59 75 89 93 89 85 83 87 92 93 94 93 100 100 97 100 100 99 99 99 99 97 80 80 74
98 99 99 96 98 100 98 97 97 93 94 98 98 98 99 96 72 52 55 56 88 100 98 91 95 98 99 99 100 99 99 100 100 100 99 95 100 99 96 84 78 72 70
98 98 98 98 99 98 99 94 99 92 95 99 98 93 99 98 100 100 99 99 95 87 100 100 94 95 91 98 97 98 100 90 89 100 100 100 100 100 97 92 88 88 90
100 99 99 99 99 98 99 100 99 100 100 99 100 94 96 97 97 97 98 97 99 98 98 98 99 99 98 99 98 98 97 98 97 96 95 95 95 91 86 81 83 86 80
97 98 100 99 98 100 100 100 100 100 100 98 99 99 99 100 99 98 99 99 98 98 97 98 98 97 97 97 95 94 96 98 97 97 97 97 95 96 99 100 100 94 90
97 99 100 99 98 99 100 100 98 99 100 99 100 100 100 99 99 100 100 99 99 99 100 99 100 100 100 95 91 94 95 100 99 100 98 100 100 100 100 100 93 76 51
99 100 100 100 100 100 100 100 100 100 99 98 99 98 97 99 98 98 99 98 98 98 98 99 98 99 99 99 99 99 99 99 100 100 100 100 100 100 99 100 97 90 73
44 54 60 79 95 99 100 100 100 100 100 100 99 100 100 100 99 99 99 100 99 99 99 99 98 99 100 100 100 100 100 100 100 100 97 97 97 93 80 63 44 28 21
24 23 23 24 26 32 49 71 85 87 88 90 96 98 98 96 96 99 99 100 100 100 99 99 99 99 96 96 96 92 85 82 80 72 60 47 32 24 20 18 16 16 16
23 22 21 20 20 20 20 20 21 22 24 29 34 46 64 69 68 65 64 63 69 79 78 83 86 75 60 42 31 27 23 21 19 19 19 18 18 17 17 17 18 20 20
18 19 19 20 21 22 23 24 25 24 22 20 19 19 20 20 20 20 20 20 19 18 18 18 18 18 18 18 18 18 18 19 18 19 20 20 21 21 19 16 15 14 14
10 11 12 14 17 18 19 19 19 20 20 21 22 23 24 24 24 23 23 22 22 22 22 22 22 21 22 23 22 21 21 20 18 17 16 15 15 15 14 12 10 8 7
16 15 14 13 13 14 15 15 15 16 18 20 21 21 20 21 21 20 19 19 18 17 17 16 16 16 17 17 16 17 17 17 17 16 14 11 9 8 7 6 6 6 6
19 17 15 13 12 12 12 13 14 15 15 15 15 16 17 17 18 18 18 17 17 17 16 17 16 16 15 14 13 11 9 8 7 7 7 7 6 7 7 8 8 9 9
14 12 11 9 9 9 9 10 10 10 10 9 9 9 9 9 10 10 10 10 9 9 8 8 8 8 8 7 7 7 7 7 8 8 9 10 10 11 11 12 13 16 21

GFSGL_500_rhum_105.txt.gz
RH
46 24 54 72 97 93 73 60 60 66 39 32 37 48 70 70 40 18 17 15 13 15 14 24 48 50 72 91 95 94 96 94 94 94 97 97 86 87 92 90 81 92 96
58 74 53 97 96 96 92 94 75 71 38 35 47 70 81 44 21 18 16 14 12 15 19 31 74 94 75 95 98 96 95 97 96 97 97 96 97 96 80 79 88 96 94
96 91 74 86 80 94 98 96 58 41 45 66 83 84 52 24 21 17 15 14 17 63 58 74 97 99 90 100 94 94 95 97 97 97 97 96 97 94 90 96 97 96 93
97 98 97 99 99 99 97 85 45 66 84 89 97 64 26 19 21 19 14 25 48 67 52 73 97 95 91 92 98 97 97 95 97 96 97 97 96 97 97 98 98 95 94
65 63 94 95 88 89 80 63 62 86 95 97 83 52 22 20 21 19 19 22 71 89 97 97 97 96 97 99 97 96 93 97 98 96 97 96 97 97 97 98 97 94 94
68 92 93 90 75 73 61 78 80 84 96 83 73 45 24 21 21 24 26 71 98 98 97 98 96 97 96 96 97 99 91 98 97 97 96 96 97 97 97 98 97 96 94
92 87 98 58 47 47 67 94 94 99 94 90 74 44 29 23 22 28 41 93 98 97 96 96 97 98 98 96 93 99 98 98 97 98 97 98 98 98 98 98 97 96 96
53 36 44 51 54 52 63 79 85 94 98 97 94 73 40 26 24 30 39 83 96 98 96 97 97 97 97 97 98 98 98 97 97 98 98 98 97 97 98 97 97 96 94
50 54 47 40 36 46 66 78 78 79 95 85 89 92 80 32 26 26 41 57 57 97 98 98 98 98 98 97 97 97 98 97 97 98 96 96 97 98 97 98 99 92 65
36 37 41 47 46 45 45 51 62 60 80 94 100 99 94 45 32 27 31 55 33 35 89 98 97 98 98 98 97 98 98 98 97 98 97 98 98 98 92 64 50 48 45
18 22 36 48 59 60 58 75 98 80 96 99 93 80 98 60 48 43 34 32 41 42 30 39 59 88 98 98 99 98 97 98 98 98 98 97 98 96 59 45 43 39 40
11 16 21 24 47 54 53 55 77 88 98 89 83 91 92 77 77 60 56 44 43 39 47 44 32 28 62 56 87 94 98 99 98 98 98 97 95 67 41 37 87 86 74
33 46 66 60 47 48 98 100 100 97 99 95 99 83 99 95 94 95 78 63 60 72 53 43 49 53 47 36 32 32 36 34 40 39 38 37 36 39 45 54 58 64 78
81 100 99 100 98 91 75 75 83 99 100 100 99 99 100 100 95 88 100 98 76 86 90 99 91 52 48 54 66 71 72 81 86 80 70 56 81 56 49 71 84 100 100
91 91 88 95 98 100 100 98 100 96 98 99 99 99 99 100 100 93 100 85 98 98 96 94 98 98 98 90 72 61 74 81 85 95 100 100 100 100 99 94 97 100 100
88 91 92 94 98 99 100 99 100 99 99 99 99 100 100 100 100 100 100 98 97 93 99 100 99 100 97 100 100 99 98 97 98 100 98 97 98 98 98 99 96 99 99
47 50 53 61 73 79 83 91 97 99 100 100 100 100 100 98 99 99 100 100 100 100 100 100 100 100 100 100 100 100 100 100 100 100 100 100 99 100 100 100 100 100 100
13 13 13 13 14 17 22 29 35 44 55 73 99 100 100 100 100 100 100 100 100 100 99 100 100 99 98 98 98 99 100 100 100 100 100 100 100 98 100 100 100 100 100
10 10 9 9 10 10 11 12 12 13 14 17 20 24 49 91 100 100 100 100 100 100 100 100 100 100 100 100 100 100 100 100 100 100 100 100 100 100 100 100 100 99 98
12 12 12 12 11 10 9 8 7 7 8 9 12 14 16 17 18 22 40 77 100 100 100 100 100 100 100 100 100 100 100 100 100 100 100 100 100 100 100 100 100 100 100
18 17 16 16 15 14 13 13 12 11 11 10 8 7 8 9 12 14 17 18 19 20 31 56 85 97 100 100 100 100 100 100 100 100 100 100 100 100 99 98 95 90 69
21 20 20 19 18 18 18 17 17 17 17 16 16 14 13 11 9 8 8 10 13 16 16 18 20 22 24 28 36 40 49 50 43 40 39 35 32 29 25 22 23 23 23
27 26 24 23 24 24 22 21 19 18 17 16 15 14 14 14 13 11 10 10 10 9 11 14 17 18 19 20 21 21 22 23 24 24 25 24 24 24 23 23 22 21 20
33 31 30 29 27 25 24 24 23 22 20 18 17 16 16 16 15 14 14 13 13 14 13 12 12 14 16 18 19 21 22 23 23 23 23 23 23 22 22 21 20 18 16
39 38 34 31 30 28 28 27 24 20 16 11 9 8 8 8 8 9 9 10 11 13 14 15 14 13 13 13 14 16 16 16 16 16 16 15 14 14 13 11 10 10 9
42 37 34 34 34 32 28 22 16 11 9 9 10 11 10 10 9 8 8 8 8 8 9 9 10 11 11 11 11 10 10 10 10 10 9 9 9 9 8 8 8 7 7